This is the latest recevied weather packets stored in our database for station/object W4MLN-1. If no packets are shown the sender has not sent any weather packets the latest 10 day(s).
| Time | Temp. | Humidity | Pressure | Rain* | Wind** | Luminosity | Snow |
|---|---|---|---|---|---|---|---|
| 1777660457 | 17.78° C | 43% | 1012.4 hPa | 0 mm | - | 1035 W/m² | - |
| 1777660156 | 17.78° C | 46% | 1012.3 hPa | 0 mm | - | 1086 W/m² | - |
| 1777659857 | 17.78° C | 41% | 1012.3 hPa | 0 mm | - | 1015 W/m² | - |
| 1777659558 | 17.78° C | 44% | 1012.3 hPa | 0 mm | - | 809 W/m² | - |
| 1777659257 | 17.78° C | 44% | 1012.3 hPa | 0 mm | - | 1115 W/m² | - |
| 1777658957 | 17.22° C | 46% | 1012.4 hPa | 0 mm | - | 1123 W/m² | - |
| 1777658657 | 16.67° C | 44% | 1012.4 hPa | 0 mm | - | 931 W/m² | - |
| 1777658357 | 16.11° C | 51% | 1012.6 hPa | 0 mm | - | 1064 W/m² | - |
| 1777658058 | 15.56° C | 50% | 1012.6 hPa | 0 mm | - | 317 W/m² | - |
| 1777657757 | 16.11° C | 50% | 1012.6 hPa | 0 mm | - | 253 W/m² | - |
| 1777657454 | 16.11° C | 50% | 1012.7 hPa | 0 mm | - | 341 W/m² | - |
| 1777657155 | 16.11° C | 53% | 1012.6 hPa | 0 mm | - | 367 W/m² | - |
| 1777656855 | 16.11° C | 51% | 1012.7 hPa | 0 mm | - | 356 W/m² | - |
| 1777656555 | 16.11° C | 48% | 1012.7 hPa | 0 mm | - | 340 W/m² | - |
| 1777656255 | 15.56° C | 52% | 1012.7 hPa | 0 mm | - | 1065 W/m² | - |
| 1777655955 | 15° C | 52% | 1013 hPa | 0 mm | - | 1220 W/m² | - |
| 1777655655 | 15° C | 53% | 1013.1 hPa | 0 mm | - | 960 W/m² | - |
| 1777655355 | 15.56° C | 51% | 1013.2 hPa | 0 mm | - | 493 W/m² | - |
| 1777655055 | 15.56° C | 54% | 1013.3 hPa | 0 mm | - | 387 W/m² | - |
| 1777654756 | 15.56° C | 53% | 1013.4 hPa | 0 mm | - | 500 W/m² | - |
| 1777654455 | 15.56° C | 52% | 1013.3 hPa | 0 mm | - | 375 W/m² | - |
| 1777654156 | 15° C | 51% | 1013.4 hPa | 0 mm | - | 675 W/m² | - |
| 1777653853 | 15° C | 53% | 1013.6 hPa | 0 mm | - | 537 W/m² | - |
| 1777653553 | 15.56° C | 52% | 1013.6 hPa | 0 mm | - | 583 W/m² | - |
| 1777653253 | 15.56° C | 51% | 1013.5 hPa | 0 mm | - | 717 W/m² | - |
* Rain latest hour (hover to see other rain measurements)
** Current wind speed in m/s (hover to see current wind gust speed)